Location: Albany
(35.0000°S, 118.0000°E)
Time: 06:08:47
(UTC-05:00)

CZ-4B R/B - Visible Passes

Search period start: 24 January 2017 00:00
Search period end: 03 February 2017 00:00
Orbit: 489 x 656 km, 97.7° (Epoch: 23 January)

Date Brightness Start Highest point End Pass type
(mag) Time Alt. Az. Time Alt. Az. Time Alt. Az.
24 Jan 6.0 12:58:48 10° E 12:59:51 11° ESE 13:00:53 10° SE visible
24 Jan 3.1 14:33:49 46° NW 14:34:35 53° W 14:38:36 10° SSW visible
25 Jan 5.9 13:01:06 10° E 13:02:31 12° ESE 13:03:54 10° SE visible
25 Jan 3.1 14:36:42 45° NW 14:37:17 48° W 14:41:14 10° SSW visible
26 Jan 5.8 13:03:29 10° E 13:05:11 12° ESE 13:06:51 10° SE visible
26 Jan 3.2 14:39:35 43° WNW 14:39:58 44° W 14:43:52 10° SSW visible
27 Jan 5.7 13:06:17 11° E 13:07:50 13° ESE 13:09:44 10° SE visible
27 Jan 3.3 14:42:28 40° WNW 14:42:40 41° W 14:46:29 10° SSW visible
28 Jan 5.7 13:09:09 12° E 13:10:30 14° ESE 13:12:35 10° SE visible
28 Jan 3.4 14:45:21 37° W 14:45:22 37° W 14:49:06 10° SSW visible
29 Jan 5.6 13:12:02 13° E 13:13:10 15° ESE 13:15:25 10° SE visible
29 Jan 3.5 14:48:13 34° W 14:48:13 34° W 14:51:42 10° SSW visible
30 Jan 5.5 13:14:54 15° E 13:15:49 16° ESE 13:18:13 10° SSE visible
30 Jan 3.7 14:51:06 31° W 14:51:06 31° W 14:54:18 10° SW visible
31 Jan 5.4 13:17:47 16° E 13:18:29 17° ESE 13:21:00 10° SSE visible
31 Jan 3.9 14:53:58 28° W 14:53:58 28° W 14:56:53 10° SW visible
01 Feb 5.3 13:20:38 17° E 13:21:08 18° ESE 13:23:47 10° SSE visible
01 Feb 4.0 14:56:50 25° WSW 14:56:50 25° WSW 14:59:27 10° SW visible
02 Feb 5.2 13:23:30 19° ESE 13:23:47 19° ESE 13:26:32 10° SSE visible
02 Feb 4.2 14:59:42 23° WSW 14:59:42 23° WSW 15:02:02 10° SW visible
